Location: Nickerson Gardens
(33.9320°N, 118.2484°W)
Time: 17:43:01
(UTC+00:00)

ESTCUBE 1 - Visible Passes

Search period start: 16 April 2021 00:00
Search period end: 26 April 2021 00:00
Orbit: 646 x 660 km, 97.9° (Epoch: 16 April)

Date Brightness Start Highest point End Pass type
(mag) Time Alt. Az. Time Alt. Az. Time Alt. Az.
20 Apr ? 06:10:04 11° N 06:10:04 11° N 06:10:17 10° N visible
21 Apr ? 06:37:47 11° NNW 06:37:47 11° NNW 06:37:54 10° NNW visible
23 Apr ? 05:55:24 12° N 05:55:24 12° N 05:55:50 10° N visible
24 Apr ? 06:23:08 13° N 06:23:08 13° N 06:23:40 10° N visible
25 Apr ? 06:50:52 11° NNW 06:50:52 11° NNW 06:51:05 10° NNW visible
